Temperature
10 10 9 9 9 8 8 7 7 6 4 4 4 4 3 3 2 2 2 1 1 1 1 1 1 1 1 1 0 0 -0 -1 -2 -2 -2 -2 -2 -2
9 9 9 8 7 7 6 6 5 4 4 3 3 3 2 2 1 1 0 0 0 -0 -0 -0 -0 -0 -1 -1 -1 -2 -2 -3 -3 -3 -3 -3 -3 -3
9 8 8 7 6 5 5 4 3 3 3 2 2 1 1 0 -0 -0 -1 -1 -1 -1 -1 -1 -1 -2 -2 -2 -3 -3 -3 -4 -4 -4 -4 -4 -3 -3
8 7 6 5 4 3 3 3 2 2 2 1 1 0 -0 -1 -1 -1 -2 -2 -2 -2 -2 -2 -2 -2 -3 -3 -3 -4 -4 -5 -5 -5 -5 -4 -4 -4
6 5 4 3 3 2 2 1 1 1 1 0 -1 -1 -2 -2 -2 -3 -3 -3 -3 -3 -3 -3 -3 -3 -4 -4 -4 -5 -5 -5 -5 -5 -5 -5 -5 -5
3 3 2 2 1 1 1 1 0 -0 -1 -1 -2 -3 -3 -4 -4 -5 -5 -5 -5 -4 -4 -4 -4 -4 -4 -4 -4 -5 -5 -5 -5 -5 -5 -5 -5 -5
1 1 1 1 0 0 -0 -1 -1 -2 -3 -3 -4 -5 -5 -6 -6 -7 -7 -7 -6 -5 -5 -5 -5 -5 -4 -4 -4 -4 -5 -5 -5 -5 -5 -5 -6 -6
0 0 0 -0 -1 -1 -1 -2 -2 -3 -4 -5 -6 -6 -6 -7 -7 -8 -8 -8 -8 -6 -7 -7 -6 -6 -5 -5 -5 -4 -5 -5 -5 -5 -6 -6 -6 -6
-0 -1 -1 -1 -2 -2 -3 -3 -3 -4 -5 -6 -6 -7 -7 -7 -8 -8 -8 -8 -8 -7 -8 -7 -6 -6 -6 -5 -5 -5 -5 -5 -5 -5 -6 -6 -6 -6
-2 -2 -2 -3 -3 -3 -4 -4 -5 -5 -6 -7 -7 -7 -7 -8 -8 -8 -8 -8 -8 -7 -8 -8 -7 -7 -6 -6 -5 -4 -5 -5 -5 -5 -6 -6 -6 -6
-3 -3 -3 -4 -4 -5 -5 -5 -6 -7 -7 -6 -7 -7 -7 -7 -8 -8 -8 -8 -8 -7 -7 -8 -7 -8 -7 -5 -4 -4 -5 -5 -5 -5 -5 -6 -6 -6
-4 -4 -4 -5 -6 -6 -7 -7 -7 -7 -7 -7 -7 -7 -7 -7 -7 -7 -8 -8 -8 -8 -7 -8 -8 -9 -8 -6 -5 -5 -5 -5 -5 -5 -5 -5 -5 -6
-5 -6 -6 -6 -7 -7 -8 -8 -7 -7 -7 -7 -7 -7 -7 -7 -7 -7 -7 -8 -8 -8 -7 -8 -8 -8 -9 -8 -6 -5 -5 -5 -5 -5 -5 -5 -6 -6
-7 -7 -7 -7 -7 -7 -7 -7 -7 -7 -7 -7 -7 -7 -7 -7 -7 -7 -7 -7 -7 -7 -7 -7 -8 -8 -9 -9 -8 -6 -6 -6 -6 -5 -6 -6 -6 -6
-7 -7 -7 -7 -7 -7 -7 -7 -7 -7 -7 -7 -7 -7 -7 -7 -7 -7 -7 -7 -6 -6 -6 -7 -7 -8 -8 -9 -8 -7 -6 -6 -5 -6 -6 -7 -6 -6
-7 -7 -7 -7 -7 -7 -7 -7 -7 -7 -7 -7 -7 -7 -7 -7 -7 -7 -7 -6 -6 -6 -6 -6 -7 -7 -8 -8 -8 -7 -7 -7 -6 -6 -7 -7 -7 -7
-8 -8 -8 -8 -8 -8 -8 -8 -8 -8 -8 -8 -8 -7 -7 -7 -7 -7 -7 -7 -7 -6 -6 -6 -7 -8 -8 -8 -8 -7 -7 -7 -7 -8 -8 -8 -7 -7
-8 -8 -8 -8 -8 -8 -8 -8 -8 -8 -8 -8 -8 -8 -7 -7 -7 -7 -7 -7 -7 -7 -7 -7 -7 -8 -9 -8 -7 -7 -7 -8 -8 -8 -8 -9 -8 -7
-8 -8 -8 -8 -8 -8 -8 -8 -8 -8 -8 -8 -8 -8 -8 -8 -7 -7 -7 -8 -8 -8 -7 -8 -8 -9 -9 -9 -8 -8 -8 -8 -8 -8 -8 -8 -8 -7
-9 -9 -9 -8 -8 -8 -8 -8 -8 -8 -8 -8 -8 -8 -8 -8 -8 -8 -8 -8 -8 -8 -8 -8 -8 -8 -9 -9 -9 -8 -7 -8 -8 -8 -8 -8 -7 -6
-9 -9 -9 -9 -8 -8 -8 -8 -8 -8 -8 -8 -8 -8 -8 -8 -8 -8 -8 -8 -8 -8 -8 -8 -8 -8 -9 -9 -9 -8 -7 -7 -8 -8 -8 -7 -7 -7
-9 -9 -9 -9 -9 -8 -8 -8 -8 -8 -8 -8 -8 -8 -8 -8 -8 -8 -8 -8 -8 -8 -8 -8 -8 -8 -8 -8 -8 -8 -8 -7 -7 -7 -7 -7 -7 -7
-9 -9 -9 -9 -9 -8 -8 -8 -8 -8 -8 -8 -8 -8 -8 -8 -8 -8 -8 -8 -8 -8 -8 -8 -8 -8 -8 -8 -8 -8 -8 -8 -7 -7 -7 -6 -7 -6
Wind_Speed
8 7 5 3 3 3 3 3 6 5 5 4 3 2 3 4 5 5 8 10 13 17 18 19 21 21 22 23 24 24 24 25 25 26 26 27 27 28
7 9 7 6 5 5 5 4 3 3 3 3 2 2 4 5 6 8 10 13 16 17 18 20 21 22 23 24 24 25 25 25 26 26 27 27 28 28
9 10 9 9 7 6 6 5 4 3 3 2 2 2 3 5 7 9 11 12 13 16 18 20 22 23 23 23 24 24 24 25 26 26 27 28 28 29
11 11 11 9 9 7 6 5 4 3 3 3 2 4 5 6 7 9 10 11 13 16 19 21 22 23 23 23 23 23 24 24 25 26 27 28 29 29
11 11 11 10 9 6 6 5 4 3 2 2 2 3 4 5 7 8 10 10 12 15 18 19 20 21 21 22 23 23 24 25 26 27 28 29 29 30
10 10 9 8 8 7 5 5 4 3 3 3 4 4 5 6 7 8 8 8 9 12 15 17 19 20 21 23 23 24 25 26 26 26 27 28 29 30
11 10 8 9 9 5 4 3 3 2 3 4 5 5 6 6 6 7 9 10 10 10 10 10 12 13 16 19 21 23 24 24 25 26 27 28 29 29
10 9 8 7 7 5 3 2 3 4 4 4 5 7 8 8 7 7 9 10 10 6 9 12 11 13 14 16 20 23 25 26 27 27 28 29 29 30
9 7 5 5 4 1 0 2 3 4 6 6 8 8 9 8 9 10 10 11 13 12 13 14 13 14 14 18 23 25 27 28 28 28 28 28 28 29
7 5 4 3 1 1 2 3 4 4 5 6 7 8 8 9 9 10 12 13 14 12 12 14 13 14 14 15 21 25 27 27 27 27 27 27 27 28
5 4 2 1 1 4 4 4 5 5 6 8 11 12 14 15 13 10 10 10 11 11 10 9 10 12 13 14 17 21 22 24 25 26 27 27 27 27
3 2 2 3 4 5 4 4 6 7 7 8 8 10 10 11 11 9 8 8 8 7 6 5 9 9 8 9 9 11 15 20 24 26 27 27 26 18
1 2 2 4 6 6 5 5 7 9 8 8 8 8 7 6 6 6 7 7 9 9 8 6 8 8 8 8 10 11 12 13 14 16 20 23 23 18
2 2 3 5 7 7 6 7 9 8 6 6 7 6 6 6 6 7 10 11 13 15 16 13 9 10 11 13 12 11 11 12 13 14 13 17 18 21
3 4 6 7 7 5 4 6 6 5 5 6 6 7 7 8 8 8 10 11 14 17 19 18 14 13 12 12 12 14 14 13 13 12 11 11 12 12
3 3 5 5 4 5 5 4 4 4 5 6 7 7 7 8 8 8 9 9 10 11 10 14 14 14 14 15 15 16 15 11 11 13 13 14 14 13
4 4 4 4 3 3 3 3 4 4 5 5 6 7 8 8 8 7 8 8 8 10 12 10 10 13 16 16 15 17 16 15 15 14 14 15 15 14
4 4 4 4 4 4 5 5 5 5 5 6 7 7 8 8 9 9 9 10 11 12 13 12 11 12 12 12 18 18 16 15 14 14 14 15 17 15
4 4 4 4 5 5 5 5 6 6 6 7 7 8 8 9 9 10 10 10 11 12 13 12 12 12 14 16 10 13 14 15 16 16 15 15 17 16
4 4 5 5 5 6 6 6 7 7 7 7 8 8 8 9 10 10 11 12 13 14 14 13 12 12 13 16 17 17 16 17 15 16 16 16 16 20
5 5 5 6 6 6 6 7 8 8 9 8 9 9 9 9 10 11 12 16 15 14 15 15 14 17 15 14 14 15 14 14 16 16 17 16 17 16
6 6 6 7 7 7 7 7 8 9 9 9 9 9 9 10 11 13 13 13 13 14 16 15 15 14 13 15 17 19 20 17 15 19 22 21 15 11
6 7 7 8 7 7 7 9 10 10 10 10 10 10 10 11 11 12 13 14 14 16 16 16 15 14 14 15 17 18 20 20 16 16 14 15 21 27
Wind_Direction
196 182 168 149 132 119 119 148 158 173 187 165 163 166 171 190 209 251 273 280 289 292 293 294 293 292 290 289 288 286 285 284 282 281 279 278 276 275
165 158 148 138 122 111 106 89 92 139 161 161 174 166 188 208 234 262 271 277 280 283 286 289 289 289 288 286 285 284 283 282 281 280 279 278 277 276
153 150 140 131 122 111 104 102 98 108 146 152 171 178 206 238 257 261 267 273 277 279 283 287 289 288 286 284 283 283 282 281 281 280 279 279 278 278
144 137 132 127 118 117 116 114 115 110 137 169 182 197 226 247 263 271 274 275 277 282 285 287 288 286 285 284 283 282 281 281 281 281 280 279 279 278
133 132 132 129 125 123 120 120 120 124 135 182 220 226 242 253 270 274 275 277 279 282 285 287 287 286 285 283 282 282 282 283 282 281 280 278 278 277
110 113 117 120 123 125 122 125 134 156 184 220 244 253 258 263 271 281 287 287 288 288 286 285 285 285 283 282 282 282 281 281 280 279 277 276 274 273
95 92 95 105 116 120 130 148 169 200 225 245 259 267 269 274 279 288 291 296 293 290 288 286 287 285 285 282 280 278 278 279 279 278 277 275 273 272
94 90 91 91 99 104 124 183 216 236 248 257 267 271 278 284 290 292 294 297 298 292 295 293 290 287 285 283 281 282 282 281 280 279 278 276 275 273
91 97 99 99 93 95 160 257 257 269 270 274 275 278 287 292 295 292 288 288 287 290 294 290 289 286 285 283 283 282 281 282 282 281 279 277 275 273
94 101 110 119 116 268 263 267 268 266 271 274 277 283 285 288 285 282 284 285 284 283 280 284 288 287 289 286 284 283 283 283 283 282 280 278 276 275
101 97 80 37 314 286 281 278 286 284 274 277 283 285 286 286 287 287 284 284 288 290 290 283 287 295 292 287 283 282 281 282 282 282 281 280 279 278
92 67 25 341 323 316 304 289 291 300 301 293 286 282 282 282 279 269 270 273 280 288 284 278 290 305 298 283 282 285 285 283 282 281 280 280 279 278
19 358 359 331 323 327 317 296 297 301 297 295 293 292 291 287 281 274 266 258 264 266 274 287 283 284 276 287 292 285 282 283 285 284 283 281 278 273
339 334 333 328 328 324 311 303 301 300 292 290 290 294 298 298 295 290 280 268 258 261 270 274 270 274 277 283 285 287 284 284 284 284 283 282 279 274
336 341 335 330 320 306 300 305 302 289 285 286 290 293 295 295 294 290 284 275 269 265 264 260 256 261 262 266 273 284 292 292 284 278 278 278 278 277
314 315 316 313 301 297 300 291 285 288 292 289 292 294 295 291 288 289 293 299 295 288 266 250 247 250 258 264 269 277 280 280 281 283 283 282 277 271
316 304 308 313 312 310 302 295 290 283 281 284 289 291 291 291 291 292 288 290 284 291 297 290 263 250 251 260 269 270 273 275 276 280 283 283 280 274
307 300 306 309 312 312 309 307 301 290 290 290 286 285 288 291 293 292 286 284 284 287 291 295 296 292 283 264 241 258 267 274 280 281 281 283 284 280
295 297 300 301 301 300 298 297 294 293 292 285 281 282 283 285 287 289 289 287 286 287 289 291 290 290 293 298 280 238 260 280 285 285 282 279 282 284
293 294 295 296 296 296 295 294 293 293 288 283 281 279 278 279 283 285 286 286 288 291 292 289 286 284 285 291 293 288 267 268 278 282 286 285 282 282
296 292 291 291 291 291 290 289 287 286 285 283 281 279 277 277 279 282 284 286 287 288 290 290 287 285 283 284 283 284 284 266 260 272 283 286 289 289
292 292 291 289 288 287 286 285 285 283 283 280 278 278 277 276 278 281 283 285 286 286 288 289 289 289 286 285 287 292 296 294 281 265 263 262 271 278
290 290 289 288 284 281 280 280 280 280 280 279 279 279 279 279 280 280 282 283 284 286 290 292 294 293 290 287 289 291 294 297 299 297 285 263 254 257
Height
1470 1473 1474 1475 1477 1478 1480 1482 1485 1484 1485 1487 1489 1491 1492 1493 1493 1492 1491 1490 1489 1488 1487 1485 1483 1480 1478 1476 1474 1472 1470 1469 1468 1467 1467 1467 1467 1467
1463 1465 1466 1467 1469 1471 1473 1475 1477 1479 1480 1481 1483 1485 1486 1486 1486 1485 1484 1482 1481 1479 1478 1476 1473 1471 1469 1466 1464 1463 1461 1460 1459 1459 1459 1458 1458 1458
1455 1457 1459 1461 1463 1465 1467 1470 1472 1474 1476 1477 1479 1479 1480 1480 1479 1478 1476 1475 1473 1471 1470 1467 1465 1462 1460 1457 1455 1454 1452 1451 1450 1450 1449 1449 1449 1449
1449 1451 1453 1456 1458 1461 1464 1466 1468 1470 1472 1472 1472 1473 1473 1473 1473 1471 1469 1467 1465 1464 1462 1459 1456 1454 1451 1449 1447 1445 1444 1443 1442 1441 1440 1440 1439 1439
1445 1448 1450 1453 1456 1458 1461 1463 1464 1466 1466 1467 1467 1467 1467 1467 1466 1464 1462 1460 1458 1456 1454 1451 1449 1446 1444 1441 1439 1437 1436 1434 1432 1431 1430 1429 1429 1428
1443 1446 1449 1452 1455 1457 1458 1459 1460 1461 1462 1462 1462 1462 1462 1461 1459 1458 1456 1454 1452 1449 1447 1444 1442 1439 1437 1434 1432 1430 1427 1425 1423 1422 1420 1419 1418 1418
1443 1447 1449 1451 1453 1455 1456 1456 1457 1457 1458 1458 1458 1457 1457 1456 1455 1453 1451 1448 1446 1444 1440 1438 1435 1432 1430 1427 1424 1422 1420 1417 1415 1413 1411 1410 1409 1408
1445 1447 1449 1450 1451 1452 1453 1453 1454 1454 1454 1454 1454 1453 1453 1452 1450 1448 1446 1444 1440 1439 1435 1432 1430 1426 1423 1420 1417 1414 1411 1409 1406 1404 1402 1400 1399 1398
1446 1447 1448 1449 1449 1450 1450 1450 1450 1450 1450 1450 1449 1449 1448 1447 1445 1443 1441 1439 1436 1433 1430 1425 1423 1419 1416 1412 1409 1406 1403 1400 1397 1395 1392 1390 1389 1387
1447 1447 1448 1448 1448 1448 1448 1447 1447 1446 1445 1445 1445 1444 1443 1441 1440 1438 1436 1433 1430 1428 1426 1420 1416 1413 1409 1405 1402 1399 1395 1392 1389 1386 1383 1381 1379 1377
1447 1447 1447 1446 1446 1445 1445 1444 1444 1443 1442 1440 1440 1439 1437 1436 1435 1433 1431 1428 1424 1422 1420 1416 1410 1405 1400 1396 1393 1390 1387 1384 1380 1377 1374 1371 1369 1366
1446 1446 1445 1444 1443 1443 1442 1442 1441 1440 1439 1437 1436 1435 1433 1432 1430 1428 1426 1423 1420 1415 1413 1410 1404 1399 1391 1385 1384 1381 1378 1375 1371 1368 1365 1362 1359 1356
1445 1444 1443 1442 1441 1440 1439 1439 1438 1436 1435 1434 1432 1431 1430 1428 1426 1424 1421 1419 1415 1411 1408 1404 1398 1394 1390 1380 1375 1373 1370 1366 1362 1358 1355 1352 1350 1347
1444 1442 1441 1440 1439 1437 1436 1435 1434 1433 1432 1431 1429 1428 1426 1424 1422 1419 1417 1414 1410 1406 1403 1399 1393 1389 1384 1376 1369 1365 1363 1359 1354 1350 1346 1343 1341 1338
1442 1440 1439 1437 1436 1435 1433 1432 1431 1430 1429 1428 1426 1424 1422 1420 1417 1414 1411 1408 1404 1401 1397 1393 1388 1383 1378 1372 1364 1359 1354 1350 1347 1342 1338 1334 1330 1327
1440 1438 1436 1435 1433 1432 1431 1430 1429 1428 1426 1425 1423 1420 1418 1415 1412 1409 1406 1402 1397 1393 1390 1386 1381 1376 1371 1365 1359 1352 1348 1343 1338 1335 1330 1325 1321 1318
1438 1436 1434 1433 1432 1430 1429 1427 1426 1425 1423 1421 1419 1416 1413 1411 1408 1404 1400 1396 1391 1386 1382 1379 1374 1369 1363 1358 1352 1346 1341 1336 1331 1327 1322 1316 1312 1309
1435 1434 1432 1431 1429 1428 1427 1425 1424 1422 1420 1417 1415 1412 1409 1406 1402 1399 1395 1391 1385 1380 1376 1371 1367 1361 1356 1350 1346 1339 1334 1329 1324 1320 1316 1309 1302 1299
1433 1431 1430 1428 1427 1425 1424 1422 1420 1418 1416 1413 1411 1408 1404 1401 1397 1393 1389 1385 1380 1375 1370 1365 1361 1356 1350 1342 1337 1334 1328 1321 1316 1312 1307 1302 1295 1289
1430 1429 1427 1426 1424 1422 1420 1419 1416 1414 1412 1409 1406 1403 1399 1395 1391 1388 1383 1379 1374 1368 1362 1358 1355 1350 1345 1337 1328 1322 1321 1315 1309 1304 1298 1293 1287 1281
1428 1426 1424 1422 1421 1419 1417 1415 1412 1410 1407 1404 1401 1398 1394 1390 1386 1382 1377 1373 1368 1362 1356 1350 1347 1343 1337 1330 1321 1313 1310 1308 1303 1297 1290 1285 1278 1272
1424 1422 1421 1419 1417 1415 1413 1410 1407 1405 1402 1399 1395 1392 1388 1384 1380 1375 1371 1366 1361 1355 1349 1343 1338 1334 1329 1323 1315 1307 1299 1295 1292 1287 1283 1278 1273 1264
1421 1419 1417 1415 1413 1410 1408 1405 1402 1399 1396 1393 1389 1385 1382 1377 1373 1368 1364 1359 1353 1347 1341 1335 1330 1326 1321 1315 1308 1300 1292 1286 1280 1275 1270 1267 1264 1258